Content
SEND FEEDBACK

Croatia Flag

SIBENIK, CROATIA


Home > Europe > Croatia
Elevation: 74 meters     Latitude: 43 44N     Longitude: 015 55E

WEATHER
 
SELECT A DAY
Number of Records: 321,667;   Date Range: 1/10/97 - 3/22/16
 
SHARE

PRINT THIS DATA

[ ← Previous Day ]
WEATHER ALMANAC - 3 JANUARY, 2013
[ Next Day → ]
[ °F ]   °C
Weather ElementAverageHighLow
Temperature9.5 °C15 °C (12:30 pm) (8:00 am)
Dewpoint4.7 °C7 °C (10:30 am) (7:00 pm)
Humidity71.2 %87 % (12:30 am)42 % (1:00 pm)
Barometer1012.5 hPa1033.9 hPa (10:00 am) (7:00 pm)
Wind Speed6.8 km/h18.5 km/h (10:30 pm)
Wind Gust38.9 km/h (8:30 pm)
Weather ElementAverage
Visibility27.5 km
Wind DirectionSSE (152.8 °)

Weather ElementTotal
Precipitation---
Heating Degree Days19.7 (Base 18.3)
Averaged from 54 records on 3 January, 2013
WEATHER CONDITIONS BREAKOUT
WIND DIRECTION BREAKOUT
WEATHER BY HOUR - 3 JANUARY, 2013
[ °F ]   °C
Local TimeTemperatureDewpointHumidityBarometerVisibilityWind DirectionWind SpeedGust SpeedPrecipitationEventsConditions
12:30 AM8 °C6 °C87 %1028.1 hPaNW (320°)7.4 km/hClear
1:00 AM8.3 °C6.1 °C81 %1029.1 hPa14.5 kmENE (70°)3.5 km/hMostly Cloudy
1:00 AM9 °C6 °C82 %1029.1 hPaVariable3.7 km/hClear
1:30 AM8 °C6 °C87 %1029.1 hPaVariable3.7 km/hClear
2:00 AM8 °C6 °C87 %1029.1 hPaVariable1.9 km/hClear
2:30 AM7 °C5 °C87 %1029.1 hPaNNW (340°)7.4 km/hClear
3:00 AM7 °C5 °C87 %1030.1 hPaVariable3.7 km/hClear
3:30 AM8 °C5 °C81 %1030.1 hPaVariable3.7 km/hClear
4:00 AM7.2 °C4.4 °C75 %1030.8 hPa14.5 kmCalmScattered Clouds
4:00 AM7 °C4 °C81 %1030.1 hPaVariable1.9 km/hClear
4:30 AM7 °C4 °C81 %1030.1 hPaVariable3.7 km/hClear
5:00 AM7 °C4 °C81 %1030.1 hPaVariable3.7 km/hClear
5:30 AM7 °C4 °C81 %1031.2 hPaVariable3.7 km/hClear
6:00 AM7 °C4 °C81 %1031.2 hPaNW (320°)7.4 km/hClear
6:30 AM7 °C4 °C81 %1031.2 hPaNW (320°)7.4 km/hClear
7:00 AM7.8 °C3.9 °C70 %1032.2 hPa19.3 kmNNW (330°)7.2 km/hMostly Cloudy
7:00 AM8 °C4 °C76 %1032.2 hPaNNW (330°)7.4 km/hClear
7:30 AM8 °C4 °C76 %1032.2 hPaNNW (340°)11.1 km/hClear
8:00 AM-17.8 °C-17.8 °CNorth
8:30 AM9 °C5 °C76 %1033.2 hPaVariable3.7 km/hClear
9:00 AM9 °C5 °C76 %1033.2 hPaVariable3.7 km/hClear
9:30 AM10 °C6 °C76 %1033.2 hPaVariable1.9 km/hClear
10:00 AM9.4 °C6.1 °C74 %1033.9 hPa30.6 kmNE (50°)3.5 km/hMostly Cloudy
10:00 AM10 °C6 °C76 %1033.2 hPaVariable3.7 km/hClear
10:30 AM10 °C7 °C82 %1033.2 hPaVariable3.7 km/hClear
11:00 AM11 °C6 °C71 %1033.2 hPaVariable3.7 km/hClear
12:00 PM14 °C6 °C59 %1033.2 hPaVariable1.9 km/hClear
12:30 PM15 °C5 °C51 %1032.2 hPaVariable1.9 km/hClear
1:00 PM14.4 °C5 °C42 %1032.8 hPa40.2 kmESE (120°)3.5 km/hClear
1:00 PM14 °C5 °C55 %1032.2 hPaVariable5.6 km/hClear
1:30 PM15 °C5 °C51 %1032.2 hPaVariable3.7 km/hClear
2:00 PM14 °C4 °C51 %1032.2 hPaVariable3.7 km/hClear
2:30 PM15 °C6 °C55 %1032.2 hPaWSW (250°)11.1 km/hClear
3:00 PM14 °C6 °C59 %1032.2 hPaWSW (240°)9.3 km/hClear
3:30 PM13 °C6 °C63 %1032.2 hPaWSW (240°)9.3 km/hClear
4:00 PM12.8 °C5.6 °C51 %1032.5 hPa40.2 kmWSW (240°)7.2 km/hClear
4:00 PM13 °C6 °C63 %1032.2 hPaWSW (240°)7.4 km/hClear
4:30 PM12 °C5 °C62 %1032.2 hPaWest (280°)9.3 km/hClear
5:00 PM12 °C5 °C62 %1032.2 hPaWSW (240°)7.4 km/hClear
5:30 PM11 °C5 °C67 %1032.2 hPaWNW (300°)14.8 km/hClear
6:00 PM10 °C5 °C71 %1032.2 hPaVariable5.6 km/hClear
6:30 PM11 °C5 °C67 %1032.2 hPaWNW (300°)14.8 km/hClear
7:00 PM10.6 °C5 °C58 %1033.2 hPa30.6 kmNW (310°)14.3 km/h
7:00 PM10 °C5 °C71 %1032.2 hPaNW (310°)13 km/hClear
7:30 PM10 °C4 °C66 %1032.2 hPaNW (310°)9.3 km/hClear
8:00 PM10 °C5 °C71 %1032.2 hPaWNW (300°)7.4 km/hClear
8:30 PM10 °C5 °C71 %1032.2 hPaWest (280°)11.1 km/h38.9 km/hClear
9:00 PM9 °C5 °C76 %1032.2 hPaWest (280°)13 km/hClear
9:30 PM9 °C5 °C76 %1032.2 hPaWNW (300°)9.3 km/hClear
10:00 PM9.4 °C5 °C64 %1032.8 hPa30.6 kmWNW (300°)10.8 km/h
10:00 PM9 °C5 °C76 %1032.2 hPaWNW (300°)11.1 km/hClear
10:30 PM10 °C5 °C71 %1032.2 hPaWest (260°)18.5 km/hClear
11:00 PM10 °C6 °C76 %1031.2 hPaWest (280°)9.3 km/hClear
11:30 PM10 °C6 °C76 %1032.2 hPaVariable1.9 km/hClear
Hourly data recorded from LDSP, located 0 kilometers away from Sibenik, Croatia




STORIES FROM OUR PARTNERS